Starlink 31879

operational
NORAD ID: 59937 Int'l Des: 2024-106 Owner: SPXS Country: US Constellation: starlink
LEOCIRCULAR

About Starlink 31879

Description loading...

Live Position

Loading 3D Globe...

Upcoming Passes

Altitude History

Altitude vs Time

uPlot chart will show altitude changes over time

Two-Line Element Set

1 59937U 24106R 25302.82482557 -.00003017 00000-0 -10021-3 0 9999
2 59937 42.9996 352.0088 0000386 315.2753 44.8068 15.27564281 80552
Epoch: Oct 29, 2025 • Age: 21 hours

Current Status

Altitude 491.2 km
Velocity 7.62 km/s
Sub-Earth Point -30.08°S, 91.93°W
Launch Date Jun 1, 2024
Age 1.4 years
Type internet

Technical Details

Classification Payload
Mass 730.00 kg
Dry Mass 700.00 kg
Total Mass 730.00 kg
Length 0.30 m
Diameter 4.10 m
Span 29.00 m
Shape Box + pan
Manufacturer SPXS
Bus Type Starlink V2M
Phase Status In Orbit
Owner/State SPXS/US

Large Constellations

Loading constellations...